Regional Weather Roundup
Issued by NWS

Home | Current Version | Previous Version | Text Only | Print | Product List | Glossary Off
Versions: 1 2 3 4 5 6 7 8 9 10 11 12 13 14 15 16 17 18 19 20 21 22 23 24 25 26 27 28 29 30 31 32 33 34 35 36 37 38 39 40 41 42 43 44 45 46 47 48 49 50

768
ASUS43 KLOT 231508
RWRIL

ILLINOIS REGIONAL WEATHER ROUNDUP
NATIONAL WEATHER SERVICE CHICAGO/ROMEOVILLE IL
1000 AM CDT MON APR 23 2018

NOTE: "FAIR" INDICATES FEW OR NO CLOUDS BELOW 12,000 FEET WITH NO
SIGNIFICANT WEATHER AND/OR OBSTRUCTIONS TO VISIBILITY.

* THESE STATIONS ARE NOT UNDER NWS QUALITY CONTROL. THEY ALSO MAY NOT
  REPORT WEATHER SUCH AS PRECIPITATION OR FOG.

ILZ001-002-007-009-015-016-024-231600-
NORTHWEST ILLINOIS

CITY           SKY/WX    TMP DP  RH WIND       PRES   REMARKS
MOLINE         FAIR      58  27  30 NE9       30.15F
STERLING*      FAIR      58  29  33 NE12      30.17F
SAVANNA*       FAIR      57  27  31 NE12      30.19F
$$

ILZ003-004-008-010-011-017-018-231600-
NORTH CENTRAL ILLINOIS

CITY           SKY/WX    TMP DP  RH WIND       PRES   REMARKS
ROCKFORD       CLOUDY    57  26  30 E14       30.22F
FREEPORT*      FAIR      55  29  37 NE10      30.21F
ROCHELLE*      FAIR      53  31  43 NE14      30.18F
DE KALB*       FAIR      54  30  40 NE13      30.19F
PERU*          FAIR      56  33  40 NE14      30.15F
$$

ILZ005-006-012>014-019>023-231600-
NORTHEAST ILLINOIS

CITY           SKY/WX    TMP DP  RH WIND       PRES   REMARKS
CHICAGO-OHARE  CLOUDY    51  28  41 NE14      30.19F
CHICAGO-MIDWAY CLOUDY    53  30  41 NE12      30.19F
AURORA         FAIR      54  29  38 NE16      30.16F
LANSING*       FAIR      48  35  61 N9        30.18F
JOLIET*        FAIR      56  31  39 N13       30.16F
WAUKEGAN       FAIR      50  29  44 NE10      30.21F
DUPAGE AIRPORT FAIR     N/A N/A N/A NE13      30.18F
KANKAKEE*      FAIR      56  31  38 E14       30.15F
WHEELING       FAIR      50  28  42 NE10      30.22F
MORRIS*        FAIR      55  31  41 NE7       30.14F
ROMEOVILLE*    FAIR      55  31  40 NE12      30.17S
NORTHERLY ISL    N/A     45  32  60 NW15        N/A
$$

LMZ740>746-231600-
SOUTHERN LAKE MICHIGAN

STATION/POSITION SKY/WX   TEMP    WIND        PRES    VSBY  WAVE
                          AIR SEA DIR/SP/G                  HT/PER
                          (F)     (DEG/KT/KT) (MB)    (MI)  (FT/S)
HARRISON CRIB              41     340/ 14/ 15   N/A
BURNHAM HARBOR             46     340/ 12/ 15   N/A
CALUMET HARBOR             43     340/ 14/ 17 1021.9F
BURNS HARBOR               43      40/  5/  7 1022.7S
MICHIGAN CITY              42      30/  6/  7   N/A
ST. JOSEPH                 44 41   50/  6/  8 1022.7          1/ 3
$$

ILZ025>027-034>036-040-047-049-050-058-095>099-231600-
WEST-CENTRAL ILLINOIS

CITY           SKY/WX    TMP DP  RH WIND       PRES   REMARKS
QUINCY         CLOUDY    56  32  40 NE17      30.08S
GALESBURG*     FAIR      58  34  39 N16       30.14F
MACOMB*        PTSUNNY   56  31  37 NE17      30.13F
JACKSONVILLE*  CLOUDY    54  32  43 NE15      30.07F
PITTSFIELD*    CLOUDY    56  32  40 NE16      30.08S
$$

ILZ028>032-037-038-041>044-048-051>054-059>061-231600-
CENTRAL ILLINOIS

CITY           SKY/WX    TMP DP  RH WIND       PRES   REMARKS
PONTIAC        FAIR      58  32  37 NE14G22   30.14F
BLOOMINGTON    CLOUDY    55  31  39 NE17      30.11F
DECATUR        CLOUDY    57  37  47 E16       30.07S
PEORIA         PTSUNNY   55  31  39 NE12      30.12S
LACON*         FAIR      57  31  37 NE10      30.13F
LINCOLN*       PTSUNNY   57  35  44 NE13      30.09F
SPRINGFIELD    CLOUDY    59  35  40 NE15      30.07F
TAYLORVILLE    CLOUDY    56  42  59 E12       30.05S
$$

ILZ033-039-045-046-055>057-062-063-231600-
EAST-CENTRAL ILLINOIS

CITY           SKY/WX    TMP DP  RH WIND       PRES   REMARKS
CHAMPAIGN      CLOUDY    55  36  48 NE13      30.08F
DANVILLE*      LGT RAIN  53  36  53 E9        30.08S
RANTOUL*       PTSUNNY   57  38  49 E13       30.10F
MATTOON        LGT RAIN  51  47  86 E9        30.04F FOG
PARIS*         DRIZZLE   53  46  77 E9        30.08S
$$

ILZ079-100>102-231600-
SOUTHWEST ILLINOIS

CITY           SKY/WX    TMP DP  RH WIND       PRES   REMARKS
ALTON          RAIN      48  48 100 NE12      30.01S
BELLEVILLE     CLOUDY    52  49  92 NE10      29.97R
CAHOKIA*       LGT RAIN  51  49  92 NE13      29.98S FOG
SPARTA*        CLOUDY    51  51 100 NE15      29.95R
$$

ILZ064>066-069>071-074>076-080>082-084>086-088>090-092>094-231600-
SOUTH-CENTRAL ILLINOIS

CITY           SKY/WX    TMP DP  RH WIND       PRES   REMARKS
CARBONDALE     CLOUDY    55  53  93 NE12G21   29.90R FOG
CAIRO*         RAIN      58  58  98 E10       29.85S
EFFINGHAM*     LGT RAIN  50  50 100 NE9       30.05R
MT. VERNON     LGT RAIN  52  51  97 NE13      29.97R FOG
CENTRALIA*     CLOUDY    53  52  95 E10       29.97S FOG
SALEM*         CLOUDY    53  50  90 NE12G18   29.99R
METROPOLIS*    CLOUDY    59  58  97 E6        29.89R
$$

ILZ067-068-072-073-078-083-087-091-231600-
SOUTHEAST ILLINOIS

CITY           SKY/WX    TMP DP  RH WIND       PRES   REMARKS
LAWRENCEVILLE  CLOUDY    55  52  89 E15G22    30.02S
FLORA*         CLOUDY    54  52  92 E14G20    30.00F
FAIRFIELD*     CLOUDY    54  53  96 NE12G17   29.97S
HARRISBURG*    CLOUDY    58  56  93 E16G23    29.93R
ROBINSON*      LGT RAIN  51  51 100 E12       30.05S
CARMI*         CLOUDY    56  54  95 NE13      29.95S
$$

ABBREVIATIONS USED IN REMARKS
   TC - TEMPERATURE IN CELSIUS
  WCI - WIND CHILL INDEX
   HX - HEAT INDEX
  VSB - VISIBILITY
$$





USA.gov is the U.S. government's official web portal to all federal, state and local government web resources and services.